CW3776 Weather Reports


Display with metric or nautical units.
time (UTC)temp
F
wind
direction
speed
MPH
gust
MPH
rain 1hr
in
rain 24hr
in
rain mn
in
humidity
%
barometer
mb
20260505202105 78 172 10.0 21.0 0.00 0.00 0.00 52 1017.5
20260505201605 78 162 8.0 13.0 0.00 0.00 0.00 52 1017.4
20260505201105 78 173 10.0 17.0 0.00 0.00 0.00 52 1017.5
20260505200105 79 151 5.0 16.0 0.00 0.00 0.00 52 1017.6
20260505195604 79 163 7.0 14.0 0.00 0.00 0.00 52 1017.7
20260505195104 79 184 9.0 17.0 0.00 0.00 0.00 50 1017.6
20260505194604 79 163 7.0 15.0 0.00 0.00 0.00 50 1017.6
20260505193604 78 162 7.0 15.0 0.00 0.00 0.00 52 1017.9
20260505193104 78 163 9.0 15.0 0.00 0.00 0.00 51 1018.0
20260505192605 79 163 9.0 18.0 0.00 0.00 0.00 49 1018.0
20260505192105 79 180 5.0 14.0 0.00 0.00 0.00 52 1018.0
20260505191104 78 164 11.0 17.0 0.00 0.00 0.00 50 1018.4
20260505190605 79 168 9.0 17.0 0.00 0.00 0.00 48 1018.4
20260505190105 79 164 9.0 15.0 0.00 0.00 0.00 48 1018.4
20260505185605 79 162 10.0 20.0 0.00 0.00 0.00 52 1018.3
20260505185104 79 154 9.0 13.0 0.00 0.00 0.00 51 1018.4
20260505184604 79 174 10.0 17.0 0.00 0.00 0.00 50 1018.5
20260505184104 79 166 9.0 16.0 0.00 0.00 0.00 51 1018.4
20260505183104 78 148 10.0 14.0 0.00 0.00 0.00 51 1018.4
20260505182604 78 119 7.0 16.0 0.00 0.00 0.00 50 1018.3
20260505182105 79 189 9.0 14.0 0.00 0.00 0.00 50 1018.4
20260505181604 78 154 9.0 16.0 0.00 0.00 0.00 51 1018.3
20260505181105 79 149 8.0 16.0 0.00 0.00 0.00 50 1018.4
20260505180605 79 146 9.0 17.0 0.00 0.00 0.00 49 1018.5
20260505180104 79 170 5.0 12.0 0.00 0.00 0.00 51 1018.5
20260505175104 79 164 9.0 17.0 0.00 0.00 0.00 51 1018.6
20260505174605 79 155 12.0 20.0 0.00 0.00 0.00 51 1018.6
20260505174104 79 173 9.0 16.0 0.00 0.00 0.00 50 1018.7
20260505173604 79 169 5.0 16.0 0.00 0.00 0.00 52 1018.7
20260505172104 79 135 8.0 13.0 0.00 0.00 0.00 51 1018.8
20260505171605 79 134 8.0 14.0 0.00 0.00 0.00 50 1018.9
20260505170605 80 162 5.0 15.0 0.00 0.00 0.00 51 1018.9
20260505165605 79 194 8.0 15.0 0.00 0.00 0.00 51 1019.0
20260505165104 79 165 7.0 13.0 0.00 0.00 0.00 49 1019.0
20260505164604 79 168 6.0 12.0 0.00 0.00 0.00 51 1019.1
20260505164105 79 121 5.0 12.0 0.00 0.00 0.00 51 1019.0
20260505162605 80 154 7.0 14.0 0.00 0.00 0.00 49 1019.2
20260505162104 80 150 8.0 15.0 0.00 0.00 0.00 50 1019.2
20260505161604 79 216 2.0 6.0 0.00 0.00 0.00 53 1019.3
20260505161104 78 168 3.0 10.0 0.00 0.00 0.00 55 1019.3
20260505160605 77 166 7.0 14.0 0.00 0.00 0.00 53 1019.4
20260505160105 77 164 7.0 12.0 0.00 0.00 0.00 54 1019.5
20260505153104 77 143 6.0 10.0 0.00 0.00 0.00 56 1019.6
20260505152604 77 170 6.0 10.0 0.00 0.00 0.00 58 1019.6
20260505152105 76 159 5.0 8.0 0.00 0.00 0.00 57 1019.6
20260505151605 77 168 1.0 6.0 0.00 0.00 0.00 57 1019.5
20260505151105 76 339 2.0 9.0 0.00 0.00 0.00 58 1019.6
20260505150604 76 158 4.0 8.0 0.00 0.00 0.00 57 1019.5
20260505150105 76 172 4.0 12.0 0.00 0.00 0.00 58 1019.5
20260505140605 75 292 2.0 7.0 0.00 0.00 0.00 61 1019.4
20260505140105 74 297 2.0 5.0 0.00 0.00 0.00 62 1019.4
20260505130104 71 174 2.0 6.0 0.00 0.00 0.00 72 1019.2
20260505124605 69 321 0.0 6.0 0.00 0.00 0.00 75 1019.5
20260505124105 68 84 1.0 3.0 0.00 0.00 0.00 76 1019.4
20260505123605 68 182 3.0 5.0 0.00 0.00 0.00 78 1019.3
20260505123105 67 134 1.0 3.0 0.00 0.00 0.00 80 1019.3
20260505121605 64 152 0.0 3.0 0.00 0.00 0.00 86 1019.3
20260505120605 63 154 0.0 2.0 0.00 0.00 0.00 89 1019.3
20260505120105 61 298 0.0 2.0 0.00 0.00 0.00 93 1019.2
20260505115606 59 298 0.0 1.0 0.00 0.00 0.00 93 1019.1